Date String (YYYY-MM-DD hh:mm:ss) UTC,Instrument flags,Ambient pressure (hPa),Sample flow (lpm),Bypass flow (lpm),Sample temperature (°C),Ambient temperature (°C),ASC tube jacket temperature (°C),LED temperature (°C),Box temperature (°C),Sample RH (%),Span deviation,Mass concentration (μg/m³),Mass concentration (μg/m³),Mass concentration (μg/m³)
DateTimeUTC,F1_M11,P_M11,Q1_M11,Q2_M11,T1_M11,T2_M11,T3_M11,T4_M11,T5_M11,U1_M11,ZSPAN_M11,X0_M11,X2_M11,X1_M11
2022-04-01 15:00:00,,0820.8,5.00,0.00,24.8,23.9,00.0,33.8,26.6,15.1,0000.0,0008.99,0003.49,0002.64
2022-04-01 15:01:00,,0820.8,5.00,0.00,24.8,24.0,00.0,33.8,26.6,15.0,0000.0,0009.23,0003.54,0002.63
2022-04-01 15:02:00,,0820.9,5.00,0.00,24.8,24.0,00.0,33.8,26.7,15.1,0000.0,0009.99,0003.56,0002.62
2022-04-01 15:03:00,,0820.8,5.01,0.00,24.8,24.0,00.0,33.8,26.7,15.2,0000.0,0010.11,0003.57,0002.60
2022-04-01 15:04:00,,0820.8,5.00,0.00,24.8,24.0,00.0,33.8,26.7,15.0,0000.0,0010.00,0003.54,0002.59
2022-04-01 15:05:00,,0820.9,5.00,0.00,24.8,24.1,00.0,33.8,26.7,15.0,0000.0,0010.16,0003.55,0002.60
2022-04-01 15:06:00,,0821.0,5.01,0.00,24.9,24.1,00.0,33.8,26.7,14.9,0000.0,0010.88,0003.56,0002.59
2022-04-01 15:07:00,,0820.9,5.00,0.00,24.8,24.1,00.0,33.8,26.7,14.8,0000.0,0010.13,0003.56,0002.60
2022-04-01 15:08:00,,0820.8,5.00,0.00,24.8,24.1,00.0,33.8,26.7,14.8,0000.0,0009.58,0003.49,0002.56
2022-04-01 15:09:00,,0820.9,5.00,0.00,24.8,24.0,00.0,33.8,26.7,14.9,0000.0,0009.58,0003.47,0002.54
2022-04-01 15:10:00,,0820.9,5.00,0.00,24.8,24.0,00.0,33.8,26.6,14.9,0000.0,0009.43,0003.48,0002.53
2022-04-01 15:11:00,,0820.8,4.99,0.00,24.8,24.0,00.0,33.8,26.6,15.0,0000.0,0009.39,0003.48,0002.53
2022-04-01 15:12:00,,0821.0,5.00,0.00,24.8,24.0,00.0,33.8,26.6,15.2,0000.0,0009.69,0003.48,0002.55
2022-04-01 15:13:00,,0821.0,5.00,0.00,24.7,24.0,00.0,33.8,26.5,15.1,0000.0,0009.50,0003.48,0002.59
2022-04-01 15:14:00,,0821.0,5.00,0.00,24.7,23.9,00.0,33.8,26.5,15.2,0000.0,0009.75,0003.50,0002.64
2022-04-01 15:15:00,,0821.1,5.00,0.00,24.7,23.9,00.0,33.8,26.5,15.3,0000.0,0009.76,0003.52,0002.67
2022-04-01 15:16:00,,0821.1,5.00,0.00,24.7,23.9,00.0,33.8,26.5,15.3,0000.0,0009.94,0003.52,0002.67
2022-04-01 15:17:00,,0821.2,5.01,0.00,24.7,23.8,00.0,33.8,26.5,15.1,0000.0,0009.88,0003.51,0002.69
2022-04-01 15:18:00,,0821.2,5.00,0.00,24.7,23.8,00.0,33.7,26.4,15.3,0000.0,0010.02,0003.51,0002.70
2022-04-01 15:19:00,,0821.2,4.98,0.00,24.7,23.8,00.0,33.7,26.5,15.4,0000.0,0010.10,0003.55,0002.73
2022-04-01 15:20:00,,0821.2,5.01,0.00,24.7,23.8,00.0,33.7,26.4,15.6,0000.0,0009.64,0003.59,0002.75
2022-04-01 15:21:00,,0821.2,5.00,0.00,24.7,23.8,00.0,33.7,26.5,15.3,0000.0,0009.56,0003.62,0002.80
2022-04-01 15:22:00,,0821.2,5.00,0.00,24.7,23.8,00.0,33.7,26.5,15.5,0000.0,0009.42,0003.61,0002.84
2022-04-01 15:23:00,,0821.2,5.01,0.00,24.6,23.8,00.0,33.7,26.4,15.4,0000.0,0009.13,0003.59,0002.85
2022-04-01 15:24:00,,0821.1,4.99,0.00,24.6,23.8,00.0,33.7,26.4,15.5,0000.0,0008.79,0003.57,0002.83
2022-04-01 15:25:00,,0821.1,5.01,0.00,24.6,23.8,00.0,33.7,26.4,15.3,0000.0,0008.25,0003.58,0002.83
2022-04-01 15:26:00,,0821.1,4.98,0.00,24.6,23.8,00.0,33.7,26.4,15.3,0000.0,0008.44,0003.55,0002.84
2022-04-01 15:27:00,,0821.1,5.01,0.00,24.6,23.7,00.0,33.7,26.4,15.4,0000.0,0008.69,0003.57,0002.86
2022-04-01 15:28:00,,0821.1,4.99,0.00,24.6,23.7,00.0,33.6,26.4,15.3,0000.0,0008.09,0003.59,0002.89
2022-04-01 15:29:00,,0821.1,5.00,0.00,24.6,23.7,00.0,33.6,26.4,15.2,0000.0,0008.29,0003.65,0002.92
2022-04-01 15:30:00,,0821.2,5.01,0.00,24.6,23.7,00.0,33.6,26.3,15.4,0000.0,0009.25,0003.69,0002.97
2022-04-01 15:31:00,,0821.2,5.00,0.00,24.5,23.7,00.0,33.6,26.3,15.4,0000.0,0009.66,0003.71,0003.00
2022-04-01 15:32:00,,0821.3,5.01,0.00,24.5,23.7,00.0,33.6,26.3,15.1,0000.0,0009.81,0003.75,0003.04
2022-04-01 15:33:00,,0821.4,4.99,0.00,24.5,23.7,00.0,33.6,26.3,14.9,0000.0,0010.06,0003.81,0003.06
2022-04-01 15:34:00,,0821.4,5.00,0.00,24.5,23.7,00.0,33.6,26.3,15.1,0000.0,0009.97,0003.88,0003.10
2022-04-01 15:35:00,,0821.3,5.00,0.00,24.5,23.7,00.0,33.6,26.2,15.0,0000.0,0010.42,0003.92,0003.12
2022-04-01 15:36:00,,0821.4,5.00,0.00,24.5,23.6,00.0,33.6,26.2,14.7,0000.0,0010.60,0003.94,0003.12
2022-04-01 15:37:00,,0821.3,5.00,0.00,24.4,23.5,00.0,33.5,26.1,14.6,0000.0,0010.41,0003.97,0003.13
2022-04-01 15:38:00,,0821.4,5.00,0.00,24.4,23.5,00.0,33.5,26.1,14.8,0000.0,0010.53,0004.04,0003.15
2022-04-01 15:39:00,,0821.3,5.00,0.00,24.4,23.5,00.0,33.5,26.1,14.8,0000.0,0010.92,0004.07,0003.16
2022-04-01 15:40:00,,0821.3,5.00,0.00,24.4,23.5,00.0,33.5,26.1,14.6,0000.0,0010.25,0004.02,0003.16
2022-04-01 15:41:00,,0821.4,5.01,0.00,24.3,23.4,00.0,33.5,26.1,14.8,0000.0,0009.45,0004.05,0003.17
2022-04-01 15:42:00,,0821.4,4.99,0.00,24.3,23.4,00.0,33.5,26.1,15.0,0000.0,0009.17,0004.08,0003.19
2022-04-01 15:43:00,,0821.4,5.01,0.00,24.3,23.3,00.0,33.5,26.1,14.7,0000.0,0009.30,0004.07,0003.19
2022-04-01 15:44:00,,0821.4,5.00,0.00,24.3,23.3,00.0,33.4,26.1,14.4,0000.0,0009.25,0004.06,0003.20
2022-04-01 15:45:00,,0821.4,4.99,0.00,24.3,23.3,00.0,33.4,26.0,14.0,0000.0,0009.49,0004.04,0003.22
2022-04-01 15:46:00,,0821.5,5.00,0.00,24.3,23.3,00.0,33.4,26.1,14.2,0000.0,0009.29,0004.03,0003.23
2022-04-01 15:47:00,,0821.4,5.01,0.00,24.3,23.3,00.0,33.4,26.1,14.0,0000.0,0009.38,0004.05,0003.26
2022-04-01 15:48:00,,0821.4,5.00,0.00,24.3,23.4,00.0,33.4,26.1,14.0,0000.0,0009.94,0004.07,0003.28
2022-04-01 15:49:00,,0821.5,4.99,0.00,24.3,23.4,00.0,33.4,26.1,14.4,0000.0,0009.91,0004.06,0003.29
2022-04-01 15:50:00,,0821.6,5.00,0.00,24.3,23.5,00.0,33.4,26.1,14.3,0000.0,0009.30,0004.01,0003.29
2022-04-01 15:51:00,,0821.7,5.00,0.00,24.3,23.5,00.0,33.3,26.1,13.9,0000.0,0009.48,0004.06,0003.30
2022-04-01 15:52:00,,0821.7,5.00,0.00,24.3,23.5,00.0,33.3,26.1,13.9,0000.0,0010.08,0004.03,0003.30
2022-04-01 15:53:00,,0821.7,5.00,0.00,24.3,23.5,00.0,33.3,26.1,14.3,0000.0,0010.09,0004.00,0003.30
2022-04-01 15:54:00,,0821.7,4.99,0.00,24.3,23.5,00.0,33.3,26.1,14.2,0000.0,0010.64,0003.99,0003.30
2022-04-01 15:55:00,,0821.7,5.01,0.00,24.3,23.5,00.0,33.3,26.1,14.0,0000.0,0010.86,0004.06,0003.31
2022-04-01 15:56:00,,0821.6,4.99,0.00,24.3,23.6,00.0,33.3,26.1,13.9,0000.0,0010.75,0004.09,0003.33
2022-04-01 15:57:00,,0821.7,5.01,0.00,24.3,23.6,00.0,33.3,26.1,13.4,0000.0,0010.67,0004.11,0003.33
2022-04-01 15:58:00,,0821.7,4.99,0.00,24.3,23.6,00.0,33.3,26.1,13.7,0000.0,0010.54,0004.11,0003.33
2022-04-01 15:59:00,,0821.7,5.01,0.00,24.3,23.6,00.0,33.3,26.1,13.9,0000.0,0010.70,0004.16,0003.33
